User: anonymous   Login
Location: Unspecified
(0.0000°N, 0.0000°E)
Time: 11:32:23
(UTC+01:00)
Language:

Cosmos 1125 Rocket - Orbit

View from above orbital plane
View from above orbital plane
View from above satellite
View from above satellite

Ground track
Ground track

The orbit data is extracted from the following two-line orbital elements,

1 11511U 79078B   17022.08229284  .00000072  00000-0  33152-4 0  9994
2 11511  74.0347 223.8362 0015107 146.8938 213.3164 14.36750729957639
Epoch (UTC): 22 January 2017 01:58:30
Eccentricity: 0.0015107
inclination: 74.0347°
perigee height: 758 km
apogee height: 780 km
right ascension of ascending node: 223.8362°
argument of perigee: 146.8938°
revolutions per day: 14.36750729
mean anomaly at epoch: 213.3164°
orbit number at epoch: 95763

The dashed part of the orbit path shows where the satellite is in the earth's shadow,  

DLR